Location: Annoux
(47.6251°N, 4.0509°E)
Time: 16:54:19
(UTC+00:00)

Daily predictions for brighter satellites

Satellite Brightness Start Highest point End
(mag) Time Altitude Azimuth Time Altitude Azimuth Time Altitude Azimuth
Cosmos 1500 Rocket 3.9 19:30:39 10° N 19:34:57 48° ENE 19:39:11 10° SSE
CZ-4C R/B 4.2 19:31:15 10° NNW 19:36:52 28° NNE 19:43:21 10° E
USA 308 4.3 19:33:24 10° W 19:37:26 38° N 19:41:29 10° ENE
Cosmos 968 Rocket 4.3 19:33:20 10° SSE 19:37:55 31° E 19:42:30 10° NE
Cosmos 1553 Rocket 4.3 19:34:34 10° SSE 19:40:22 47° E 19:46:16 10° NNE
Cosmos 2221 2.5 19:41:36 10° S 19:45:53 83° E 19:50:14 10° N
Resurs 01 Rocket 2.1 19:43:44 10° SE 19:47:59 47° ENE 19:52:16 10° N
Cosmos 2208 Rocket 4.2 19:45:31 10° NNW 19:50:57 82° WSW 19:56:24 10° SSE
IRS-1A Rocket 4.4 19:45:37 10° SSE 19:51:22 87° WSW 19:57:16 10° NNW
SL-4 R/B 2.2 19:50:05 10° WNW 19:54:27 87° SSW 19:58:56 11° ESE
Cosmos 1242 Rocket 4.3 19:52:52 11° SE 19:54:56 16° E 19:57:10 10° NE
DELTA 2 R/B (1) 4.3 19:50:01 10° WSW 19:55:05 36° S 20:00:02 10° ESE
IGS 5A 3.9 19:51:25 10° SE 19:55:23 46° ENE 19:59:23 10° N
FALCON 9 DEB 2.8 19:54:55 10° WNW 19:57:59 82° SSW 20:00:34 14° ESE
NOSS 2-2 (C) 4.5 19:55:13 10° NW 20:00:31 82° NE 20:07:34 12° SE
Cosmos 1943 4.3 19:56:51 10° NW 20:02:09 42° WSW 20:07:26 10° S
X-37B 0.9 20:01:20 10° WSW 20:04:26 47° S 20:07:15 12° E
CZ-2C R/B 4.4 20:01:25 10° NNE 20:05:29 34° E 20:09:34 10° SSE
Cosmos 2263 Rocket 3.4 20:00:18 10° SW 20:05:38 47° NW 20:11:03 10° NNE
Cosmos 1606 2.6 20:02:12 10° S 20:05:56 71° E 20:09:42 10° NNE
Landsat 7 4.0 20:05:17 10° SSE 20:09:53 60° ENE 20:14:36 10° N
Sich 1 3.4 20:05:56 10° N 20:10:07 46° ENE 20:13:40 14° SSE
Cosmos 1844 Rocket 2.9 20:06:02 10° S 20:11:22 49° ESE 20:16:45 10° NE
Spot 2 Rocket 4.3 20:08:53 13° SE 20:12:52 37° ENE 20:17:28 10° N
BREEZE-M DEB (TANK) 3.9 20:12:04 10° WSW 20:13:40 16° SSW 20:15:23 11° S
USA 305 4.5 20:17:01 10° WNW 20:20:57 34° N 20:24:52 10° ENE
MetOp-B 4.1 20:18:56 12° SSE 20:23:50 74° ENE 20:29:12 10° N
BREEZE-M R/B 2.4 20:21:46 10° SW 20:24:08 31° SSE 20:24:56 24° ESE
OBJECT-B 3.5 20:22:13 10° SW 20:24:31 18° W 20:26:50 10° NW
Cosmos 1844 3.9 20:19:34 10° S 20:25:07 52° ESE 20:30:37 10° NE
Cosmos 1933 3.5 20:24:25 13° SSE 20:27:54 51° E 20:31:50 10° NNE
OE (NEXTSAT) 4.3 20:26:36 10° WSW 20:30:02 59° S 20:32:31 17° E
ERS-1 Rocket 3.7 20:31:14 18° SE 20:34:23 38° ENE 20:39:01 10° N
Cosmos 1151 Rocket 3.7 20:34:16 20° SSE 20:36:40 37° E 20:40:43 10° NNE
ARIANE 5 R/B 2.9 20:34:30 21° SE 20:37:11 51° ENE 20:41:23 10° N
ATLAS 5 CENTAUR R/B 2.5 20:32:56 10° NW 20:38:21 62° NE 20:42:54 19° ESE
USA 306 4.4 20:36:08 10° WNW 20:40:03 34° N 20:44:00 10° ENE
CREW DRAGON DEMO-1 DEB 4.1 20:37:59 10° WNW 20:40:26 33° N 20:42:54 10° ENE
SPOT 1/Viking Rocket 3.5 20:38:44 17° SSE 20:42:47 84° ENE 20:48:01 10° NNW
Cosmos 1833 Rocket 3.9 20:37:53 10° NNW 20:42:51 30° NE 20:46:34 15° ESE
FALCON 9 DEB 4.2 20:43:18 10° W 20:45:56 27° SW 20:46:48 23° S
Cosmos 1745 Rocket 4.2 20:39:50 10° NNW 20:46:03 73° W 20:51:59 11° S
Cosmos 1805 Rocket 4.1 20:42:04 10° NNW 20:46:20 57° W 20:50:08 13° S
Cosmos 1709 Rocket 3.9 20:43:05 10° N 20:49:14 73° E 20:53:35 20° SSE
Cosmos 1437 Rocket 3.6 20:47:05 10° SSW 20:50:48 50° WNW 20:54:39 10° N
Cosmos 1666 4.4 20:48:20 10° NNE 20:51:04 19° ENE 20:51:54 18° E
FALCON 9 DEB 4.4 20:50:24 10° W 20:52:51 22° SW 20:53:30 21° SSW
SPOT 3 Rocket 4.3 20:50:52 10° S 20:55:45 48° W 21:00:45 10° NNW
Cosmos 1354 Rocket 4.0 20:51:44 13° S 20:56:17 58° ESE 21:01:26 10° NNE
Cosmos 1633 Rocket 3.0 20:51:59 10° N 20:56:23 70° E 20:58:36 28° SSE
SPOT 5 3.2 20:55:30 26° SE 20:58:12 58° ENE 21:03:19 10° N
FALCON 9 DEB 4.2 20:55:57 10° W 20:58:33 26° SW 20:59:00 25° SSW
Cosmos 1782 2.8 20:56:56 28° SSE 20:58:53 62° E 21:02:51 10° NNE
Cosmos 2315 Rocket 4.0 20:55:20 15° S 21:00:38 71° E 21:07:00 10° NNE
COSMOS 2406 4.0 20:57:31 10° NNW 21:02:51 40° NE 21:05:59 22° ESE
Cosmos 1470 Rocket 4.0 20:59:09 10° N 21:03:31 49° ENE 21:05:12 32° SE
USA 307 4.3 21:00:40 10° WNW 21:04:39 36° N 21:08:38 10° ENE
USA 290 2.5 21:02:18 10° NNW 21:05:31 60° WSW 21:06:28 39° S
Cosmos 1328 Rocket 3.6 21:06:36 29° SSE 21:08:44 65° E 21:13:08 10° NNE
Cosmos 2082 Rocket 3.6 21:06:53 10° N 21:11:39 27° NE 21:14:57 16° E
SWARM A 4.3 21:08:25 10° N 21:11:43 60° E 21:12:11 53° SE
CARTOSAT-1 3.6 21:11:00 30° S 21:13:05 78° WSW 21:17:26 10° NNW
Terra 2.0 21:14:54 34° SE 21:16:50 61° ENE 21:21:32 10° N
USA 308 4.2 21:14:06 10° WNW 21:18:08 38° N 21:21:39 13° ENE
Cosmos 1933 Rocket 4.0 21:14:05 10° N 21:18:16 45° ENE 21:19:23 37° ESE
Cosmos 1666 Rocket 4.1 21:15:47 10° NNW 21:20:07 55° W 21:22:27 25° SSW
Cosmos 1500 3.0 21:16:39 10° N 21:20:26 78° E 21:21:17 51° SSE
USA 245 4.1 21:22:47 22° WSW 21:22:54 22° W 21:24:48 10° NW
Resurs 01 Rocket 3.8 21:21:24 10° SW 21:24:43 21° W 21:28:04 10° NW
CZ-4C R/B 3.1 21:19:35 10° NW 21:26:39 69° NE 21:31:36 26° ESE
Cosmos 1271 Rocket 3.9 21:27:36 29° E 21:27:36 29° E 21:30:53 10° NNE
Cosmos 1242 Rocket 3.9 21:26:47 15° SW 21:29:27 37° WNW 21:32:48 10° N
NOSS 3-3 (A) 3.8 21:26:12 15° SSW 21:30:55 61° ESE 21:37:21 10° NE
NOSS 3-3 (C) 3.9 21:26:23 16° SSW 21:31:01 61° ESE 21:37:27 10° NE
Cosmos 1538 Rocket 4.4 21:26:33 10° NNW 21:31:51 55° ENE 21:33:50 35° ESE
Cosmos 1536 4.3 21:28:57 10° NNE 21:32:17 24° ENE 21:32:41 23° E
SL-4 R/B 3.6 21:30:05 10° W 21:33:47 25° SW 21:34:29 24° SSW
Cosmos 2228 Rocket 4.1 21:33:47 30° E 21:33:55 30° E 21:37:49 10° NNE
ATLAS 2AS CENTAUR R/B 4.0 21:27:40 10° NW 21:34:34 37° NNE 21:40:34 12° E
Meteor 1-10 Rocket 4.5 21:34:27 37° SE 21:36:07 50° E 21:41:32 10° NNE
Cosmos 2278 Rocket 2.6 21:36:18 38° SE 21:37:34 44° ESE 21:42:55 10° NE
DELTA 2 R/B (1) 4.5 21:36:04 10° WSW 21:40:47 29° SSW 21:40:47 29° SSW
X-37B 2.1 21:37:47 10° W 21:39:32 28° WSW 21:39:32 28° WSW
USA 215 4.0 21:38:01 10° E 21:44:16 50° NNE 21:50:32 10° NW
SJ 16-02 1.9 21:47:16 39° E 21:47:16 39° E 21:51:13 10° NE
Iridium 4 Rocket 3.7 21:49:01 37° S 21:51:23 89° WSW 21:57:20 10° N
Cosmos 773 Rocket 4.3 21:46:28 10° NNW 21:51:42 60° WSW 21:53:29 39° SSW
Cosmos 1844 Rocket 4.4 21:50:33 10° WSW 21:55:29 32° NW 22:00:28 10° NNE
Cosmos 158 Rocket 4.1 21:55:32 10° NNW 22:00:22 57° ENE 22:01:24 46° ESE
USA 305 3.5 21:57:19 10° WNW 22:01:30 52° NNE 22:02:58 35° ENE
Cosmos 1812 3.2 22:00:48 46° WSW 22:01:31 56° WNW 22:05:21 10° N
Meteor 1-5 Rocket 4.3 21:57:18 10° NNW 22:02:41 62° W 22:04:31 39° SSW
deb Kosmos-1763 4.1 21:59:34 10° NNW 22:02:48 68° NNE 22:02:48 68° NNE
Cosmos 1943 Rocket 4.1 22:08:48 15° E 22:08:48 15° E 22:11:05 10° ENE
ERS-1 Rocket 4.3 22:11:13 23° SW 22:13:14 31° W 22:17:42 10° NNW
Cosmos 1544 4.0 22:10:13 10° N 22:13:05 38° NE 22:13:05 38° NE
Cosmos 1777 Rocket 4.3 22:14:04 30° SW 22:16:38 65° WNW 22:21:49 10° NNE
H-2A R/B 4.5 22:15:12 10° N 22:19:12 43° WNW 22:20:37 31° WSW
USA 306 3.2 22:16:19 10° WNW 22:20:34 62° NNE 22:21:14 53° ENE
Cosmos 2154 Rocket 4.0 22:15:13 10° N 22:21:36 88° W 22:23:35 47° S
ATLAS 5 CENTAUR R/B 3.5 22:17:51 10° WNW 22:22:55 32° WSW 22:24:26 29° SW
Cosmos 923 Rocket 4.1 22:19:53 10° NNW 22:25:08 68° ENE 22:26:07 55° ESE
Cosmos 1743 3.5 22:21:56 10° N 22:25:10 42° NE 22:25:10 42° NE
Cosmos 1869 Rocket 3.4 22:21:52 10° N 22:26:13 82° W 22:26:20 81° SW
Cosmos 1666 3.8 22:23:19 10° NNW 22:26:44 34° W 22:26:44 34° W
Cosmos 1833 Rocket 3.0 22:21:34 10° NW 22:27:05 54° WSW 22:28:16 46° SSW
Cosmos 2184 Rocket 4.4 22:23:50 10° NNW 22:29:54 54° W 22:32:10 36° SSW
Cosmos 1898 Rocket 4.3 22:30:44 36° E 22:30:44 36° E 22:35:21 10° NE
Meteor 1-27 Rocket 3.7 22:31:43 53° S 22:33:12 89° E 22:39:08 10° NNE
ALOS 2 3.3 22:34:29 42° ENE 22:34:41 42° ENE 22:38:50 10° N
Gbstr 26 Del rocket 4.5 22:36:34 10° WNW 22:43:54 62° N 22:49:56 10° E
Cosmos 2084 4.1 22:42:56 36° W 22:44:13 50° NW 22:48:24 10° NE
Cosmos 962 Rocket 4.4 22:38:27 10° N 22:44:37 83° E 22:46:01 56° SSE
USA 307 3.0 22:40:46 10° WNW 22:44:50 76° NNW 22:44:50 76° NNW
Cosmos 1707 Rocket 3.6 22:46:33 67° ENE 22:46:33 67° ENE 22:50:36 10° NNE
COSMOS 2406 4.0 22:41:57 10° NW 22:47:09 38° WSW 22:48:02 36° SW
Nadezhda 1 Rocket 4.3 22:47:56 39° SW 22:50:17 63° WNW 22:56:33 10° N
Meteor 1-11 Rocket 4.5 22:47:59 10° NNW 22:53:39 47° W 22:55:12 38° SW
Terra 3.8 22:53:47 16° WSW 22:54:58 18° W 22:58:12 10° NW
Meteor 1-19 Rocket 4.5 22:55:00 47° ESE 22:55:17 47° E 23:00:27 10° NNE
Cosmos 2082 Rocket 2.2 22:50:36 10° NNW 22:56:09 61° WSW 22:56:47 57° SW
Okean 1 4.1 22:57:49 45° NE 22:57:49 45° NE 23:00:54 10° NNE
USA 308 3.2 22:54:09 10° WNW 22:57:44 61° WNW 22:57:44 61° WNW
Cosmos 2181 Rocket 4.0 22:57:25 53° SE 22:58:30 61° E 23:04:33 10° NNE
Spot 4 3.9 22:59:10 65° WSW 22:59:25 66° WSW 23:04:17 10° NNW
Cosmos 990 Rocket 3.8 22:59:43 75° SSE 23:00:01 78° ESE 23:05:18 10° NNE
Cosmos 1340 Rocket 3.3 22:58:37 10° NNW 23:02:08 55° WNW 23:02:08 55° WNW
COBE Rocket 4.1 23:02:19 57° E 23:02:48 60° ENE 23:07:50 10° N
Cosmos 2112 Rocket 3.9 22:58:42 10° NNW 23:04:05 88° WSW 23:04:36 74° SSE
Cosmos 1536 4.2 23:05:07 10° NNW 23:08:23 31° W 23:08:23 31° W
Cosmos 2341 Rocket 4.0 23:02:59 10° NNW 23:09:23 76° W 23:10:49 55° SSW
NOSS 3-4 (A) 3.9 23:05:31 10° NW 23:12:24 61° WSW 23:14:09 49° S
NOSS 3-4 (C) 3.9 23:05:37 10° NW 23:12:31 62° WSW 23:14:16 49° S
CZ-4C R/B 3.7 23:08:26 10° NW 23:15:08 37° WSW 23:16:47 34° SW
Cosmos 2366 rocket 3.9 23:10:26 10° N 23:16:38 82° E 23:17:51 60° SSE
Cosmos 1975 3.4 23:16:48 10° N 23:20:04 52° NNE 23:20:04 52° NNE
Cosmos 1733 Rocket 3.3 23:16:44 10° NNW 23:20:35 61° WNW 23:20:35 61° WNW
Cosmos 2278 Rocket 3.5 23:18:05 18° WSW 23:21:46 36° NW 23:26:58 10° NNE
SeaSat 1 2.8 23:20:28 10° NE 23:24:55 51° E 23:24:55 51° E
SJ 16-02 3.2 23:24:13 21° W 23:25:47 25° WNW 23:29:29 10° N
ATLAS 2AS CENTAUR R/B 2.7 23:18:51 10° NW 23:26:15 78° SW 23:27:59 54° SSE
USA 215 3.1 23:25:10 49° SE 23:27:06 78° SW 23:33:40 10° NW
Cosmos 1818 3.8 23:23:54 10° NNW 23:29:23 66° NE 23:30:38 50° ESE
Cosmos 1908 Rocket 3.9 23:26:22 10° N 23:30:37 60° ENE 23:30:37 60° ENE
Thor Agena Rocket 3.6 23:25:51 10° NNE 23:31:02 64° ESE 23:31:15 63° ESE
Cosmos 2218 Rocket 3.9 23:25:29 10° NNW 23:31:45 77° W 23:32:57 59° SSW
Cosmos 1680 Rocket 4.0 23:27:44 10° NNW 23:32:47 45° WSW 23:32:49 45° WSW
Cosmos 2369 Rocket 2.9 23:34:06 38° ESE 23:34:06 38° ESE 23:39:13 10° NE
Meteor 2-9 Rocket 4.2 23:32:07 10° NNW 23:37:56 70° W 23:38:37 63° SW
Cosmos 1937 Rocket 3.3 23:40:21 76° WSW 23:40:40 81° WNW 23:45:52 10° NNE
Meteor 2-4 Rocket 3.7 23:42:44 63° SE 23:43:27 71° E 23:49:08 10° NNE
Meteor 1-18 Rocket 4.2 23:44:04 64° SW 23:44:52 77° WNW 23:50:31 10° N
Cosmos 489 Rocket 4.3 23:41:03 10° NNW 23:47:17 80° WSW 23:48:22 62° S
Cosmos 44 3.4 23:41:58 10° NW 23:47:25 73° WSW 23:47:25 73° WSW
Cosmos 1238 Rocket 4.4 23:44:14 10° NNW 23:50:21 45° W 23:51:22 42° WSW
Nimbus 7 Rocket 4.4 23:44:59 10° NNE 23:50:51 76° WNW 23:52:02 57° SW
Cosmos 1943 Rocket 2.0 23:50:17 71° SSW 23:50:58 90° ESE 23:56:37 10° NNE
